{"data":{"norad_id":54645,"intl_designator":"2022-166D","name":"ONEWEB-0540","alt_names":[],"object_type":"PAYLOAD","status":"ACTIVE","operator":null,"country":"UK","launch_date":"2022-12-08","launch_site_code":"AFETR","launch_vehicle":null,"mission":null,"orbit_class":"UNKNOWN","rcs_meters":null,"size_class":null,"mass_kg":null,"dimensions":null,"purposes":["comms"],"wikipedia_slug":null,"has_3d_model":false,"image_url":null,"decayed_at":null,"tle_current":{"epoch":"2026-09-20T03:29:30.540768Z","epoch_age_seconds":52680,"freshness":"FRESH","line1":"1 54645U 22166D   26263.14549237  .00000071  00000+0  13958-3 0  9991","line2":"2 54645  87.9276 225.0986 0002115  82.2070 277.9304 13.21824522184077","mean_motion":13.21824522,"eccentricity":0.0002115,"inclination_deg":87.9276,"raan_deg":225.0986,"arg_perigee_deg":82.207,"mean_anomaly_deg":277.9304,"bstar":0.00013958,"rev_number":18407,"period_min":108.94033028084,"perigee_km":1176.1609287825,"apogee_km":1179.3570727908,"semimajor_km":7555.8960007866,"source":"CELESTRAK","updated_at":"2026-09-20T09:00:44.723507Z"}}}